Other Public Products
Issued by NWS Charleston, SC

Home | Current Version | Previous Version | Text Only | Print | Product List | Glossary On
Versions: 1 2 3 4 5 6 7 8 9 10 11 12 13 14 15 16 17 18 19 20 21 22 23 24 25 26 27 28 29 30 31 32 33 34 35 36 37 38 39 40 41 42 43 44 45 46 47 48 49 50
000
FPUS82 KCHS 222112
OPUCHS

TEST...KCHS/KSAV Gateway Observations...TEST
National Weather Service Charleston SC
500 PM EDT SUN APR 22 2018

NOTE: "fair" indicates few or no clouds below 12,000 feet with no
significant weather and/or obstructions to visibility.

SCZ050-WAZ558-NCZ071-TXZ119-213-PAZ071-DCZ001-FLZ074-172-MI076-
NYZ176-178-MAZ016-IL014-TNZ027-NJZ106-GAZ044-MD014-222200-

...Gateway Observations for Charleston International...

CITY           SKY/WX    TMP DP  RH WIND       PRES   REMARKS
Chas Airport   CLOUDY    71  51  49 E16G22    30.23S
Seattle        MOSUNNY   57  39  51 N12       30.36F
Charlotte      CLOUDY    67  46  47 SE9       30.26F
Dallas DFW     PTSUNNY   67  43  41 NW21G28   30.01F
Dallas Love    PTSUNNY   68  44  42 NW22G28   30.02F
Philladelphia  FAIR      65  22  19 SW10      30.34F
Wash National  CLOUDY    64  41  42 SE10      30.33S
Baltimore      PTSUNNY   64  38  38 SE9       30.33F
Miami          PTSUNNY   81  69  67 SE12G21   30.01F
Detroit        FAIR      62  24  23 E9        30.34F
Newark         FAIR      63  34  33 SE15      30.31F
Laguardia      FAIR      61  20  20 S15       30.32S
J F K          FAIR      54  28  36 S21       30.35F
Boston Logan   FAIR      53  27  36 SE14      30.30S
Ft. Lauderdale PTSUNNY   82  74  76 E15       30.00F
Chicago O`Hare PTSUNNY   60  25  26 NE16G23   30.26F
Chicago Midway PTSUNNY   61  26  26 NE16      30.26F
Houston Bush   FAIR      71  55  56 W10G18    30.00F
Houston Hobby  FAIR      72  53  51 NW14G20   29.99F
Nashville      CLOUDY    59  56  89 E15       30.02F
Atlanta        LGT RAIN  60  59  96 E14G24    30.10F FOG

$$

GAZ044-118-TXZ119-213-NCZ071-DCZ001-MDZ014-506-PAZ021-071-NJZ106-
NYZ176-178-MAZ106-OHZ011-021-055-MIZ076-KYZ091-ILZ014-INZ047-
MNZ060-ONZ431-222200-

...Gateway Observations for Savannah International...

CITY           SKY/WX    TMP DP  RH WIND       PRES   REMARKS
Savannah Arpt  CLOUDY    70  56  61 E14       30.17F
Atlanta        LGT RAIN  60  59  96 E14G24    30.10F FOG
Charlotte      CLOUDY    67  46  47 SE9       30.26F
Dallas DFW     PTSUNNY   67  43  41 NW21G28   30.01F
Houston Bush   FAIR      71  55  56 W10G18    30.00F
Wash National  CLOUDY    64  41  42 SE10      30.33S
Wash Dulles    CLOUDY    64  42  44 SE9       30.31S
Baltimore      PTSUNNY   64  38  38 SE9       30.33F
Philadelphia   FAIR      65  22  19 SW10      30.34F
Newark         FAIR      63  34  33 SE15      30.31F
Laguardia      FAIR      61  20  20 S15       30.32S
J F K          FAIR      54  28  36 S21       30.35F
Boston         FAIR      53  27  36 SE14      30.30S
Pittsburg      PTSUNNY   67  25  20 CALM      30.25F
Akron          FAIR      67  25  20 E12       30.27F
Cleveland      PTSUNNY   57  26  30 NE20G26   30.33F
Cincinnati     CLOUDY    64  31  28 NE13      30.19F
Columbus       FAIR      65  29  25 E7        30.22F
Detroit        FAIR      62  24  23 E9        30.34F
Chicago O`Hare PTSUNNY   60  25  26 NE16G23   30.26F
Minneapolis    FAIR      63  34  33 VRB7      30.27F
Indianapolis   CLOUDY    66  24  20 E16       30.17F
Toronto Canada MOSUNNY   59  18  20 S12       30.36F

$$




USA.gov is the U.S. government's official web portal to all federal, state and local government web resources and services.